NOAA 16 DEB, 41071

Orbit data source: Space-Track

NOAA 16 DEB, 41071 is space debris in SSO originally from a launch on Thu, 21 Sep 2000 UTC launched from the Air Force Western Test Range (AFWTR). Debris objects in space refer to the collection of defunct objects orbiting the Earth. Examples of debris include non-operational satellites, rocket bodies, and fragments generated from explosions, collisions, or faulty payload assembly.

Loading next visibility...
Identifier
41071, 2000-055AE
Orbit
SSO
Country
Flag of USUS
Related business
Manufacturer
Unknown
Mission
Spacecraft
Bus & Motor
Unknown
Mass
Unknown
Launch date (UTC)
2000-09-21 (25 years ago)
Launch vehicle
Unknown
Launch site
Air Force Western Test Range (AFWTR)
Object type
Payload
Rocket body
Debris
Shape & HBR
Unknown shape, 0.2 m
Radar Cross Section
Small (<0.1 m²)

Expand to show TLE details & history
Last TLE update: 8 hours ago

TLE from 8 hours ago
0 NOAA 16 DEB
1 41071U 00055AE  25355.18531762  .00002685  00000-0  10890-2 0  9997
2 41071  98.8166  96.5029 0011392 155.3584 204.8143 14.28498035520453
Epoch: 2025-12-21T04:26Z
TLE epoch observation values (Epoch: 2025-12-21T04:26:51.442Z)
Latitude
-0.00004°
Longitude
-60.21283°
Altitude
807.1 km
Speed
7.446 km/s
True Right ascension
06h 26m 00s
True Declination
0° 00' 00"
Sunlit
Object was in full shadow at epoch
Visualization orbit readout
Latitude
Unknown
Longitude
Unknown
Altitude
Unknown
Speed
Unknown
Apparent Right ascension
Unknown
Apparent Declination
Unknown
Sunlit
N/A
Visualization observer readout
Local Sidereal Time
11:15:02
Azimuth
Unknown
Elevation
Unknown
Doppler factor
Unknown
Orbital elements
Apogee altitude
802.078 km
Perigee altitude
785.738 km
Semi-major axis
7,172.045 km
Eccentricity
0.00114
Inclination
98.8166°
RAAN
96.5029°
Arg. of periapsis
155.3584°
True anomaly
204.75958°
Mean anomaly
204.8143°
Eccentric anomaly
204.78694°
Mean motion
3.57338 °/min
Orbital period
100.75 mins
BSTAR
0.001089
Loading maneuver chart data...
Computing Atmospheric mass density...
Loading historical data...
Loading historical data...
Loading historical data...
Loading historical data...
Loading historical data...
Loading historical data...
Loading historical data...

Documentation

Showing up to 5 results
|